FW7382 Weather Reports


time (UTC)temp
C
wind
direction
speed
KPH
gust
KPH
rain 1hr
cm
rain 24hr
cm
rain mn
cm
humidity
%
barometer
mb
20260502214040 18 0.0 0.0 0.00 0.00 0.00 57 1017.1
20260502213017 18 0.0 0.0 0.00 0.00 0.00 57 1017.1
20260502212020 18 0.0 0.0 0.00 0.00 0.00 58 1017.1
20260502211017 18 0.0 0.0 0.00 0.00 0.00 58 1017.0
20260502210017 18 0.0 0.0 0.00 0.00 0.00 58 1017.0
20260502205037 18 0.0 0.0 0.00 0.00 0.00 58 1016.9
20260502204017 18 0.0 0.0 0.00 0.00 0.00 59 1017.0
20260502203015 18 0.0 0.0 0.00 0.00 0.00 59 1017.0
20260502202017 18 0.0 0.0 0.00 0.00 0.00 59 1017.0
20260502201037 19 0.0 0.0 0.00 0.00 0.00 58 1016.9
20260502200057 19 0.0 0.0 0.00 0.00 0.00 57 1016.8
20260502195017 19 0.0 0.0 0.00 0.00 0.00 56 1016.8
20260502194017 19 0.0 0.0 0.00 0.00 0.00 56 1016.8
20260502193017 19 0.0 0.0 0.00 0.00 0.00 55 1016.6
20260502192017 19 0.0 0.0 0.00 0.00 0.00 54 1016.5
20260502191017 20 0.0 0.0 0.00 0.00 0.00 52 1016.6
20260502190016 20 0.0 0.0 0.00 0.00 0.00 53 1016.4
20260502185036 20 0.0 0.0 0.00 0.00 0.00 50 1016.4
20260502184037 20 0.0 0.0 0.00 0.00 0.00 50 1016.3
20260502182057 21 0.0 0.0 0.00 0.00 0.00 50 1016.3
20260502181016 21 0.0 0.0 0.00 0.00 0.00 50 1016.2
20260502164016 25 0.0 0.0 0.00 0.00 0.00 46 1016.6
20260502163016 25 0.0 0.0 0.00 0.00 0.00 40 1016.7
20260502162016 26 0.0 0.0 0.00 0.00 0.00 37 1017.0
20260502161016 27 0.0 0.0 0.00 0.00 0.00 35 1017.2
20260502160200 27 0.0 0.0 0.00 0.00 0.00 35 1017.4
20260502152016 27 0.0 0.0 0.00 0.00 0.00 35 1017.7
20260502151016 27 0.0 0.0 0.00 0.00 0.00 37 1017.8
20260502123119 25 0.0 0.0 0.00 0.00 0.00 41 1020.3
20260502122016 25 0.0 0.0 0.00 0.00 0.00 41 1020.3
20260502121016 24 0.0 0.0 0.00 0.00 0.00 41 1020.4
20260502115056 24 0.0 0.0 0.00 0.00 0.00 43 1020.7
20260502114016 23 0.0 0.0 0.00 0.00 0.00 43 1020.8
20260502113059 23 0.0 0.0 0.00 0.00 0.00 44 1021.0
20260502112016 23 0.0 0.0 0.00 0.00 0.00 48 1021.0
20260502111038 23 0.0 0.0 0.00 0.00 0.00 46 1021.1
20260502110016 23 0.0 0.0 0.00 0.00 0.00 47 1021.3
20260502105016 23 0.0 0.0 0.00 0.00 0.00 48 1021.3
20260502104016 22 0.0 0.0 0.00 0.00 0.00 48 1021.5
20260502103016 22 0.0 0.0 0.00 0.00 0.00 47 1021.5
20260502102016 22 0.0 0.0 0.00 0.00 0.00 48 1021.7
20260502101139 22 0.0 0.0 0.00 0.00 0.00 48 1021.8
20260502091017 20 0.0 0.0 0.00 0.00 0.00 52 1022.2
20260502071015 16 0.0 0.0 0.00 0.00 0.00 59 1022.6
20260502070036 16 0.0 0.0 0.00 0.00 0.00 57 1022.6
20260502065119 15 0.0 0.0 0.00 0.00 0.00 59 1022.7
20260502064035 15 0.0 0.0 0.00 0.00 0.00 59 1022.7
20260502063116 15 0.0 0.0 0.00 0.00 0.00 59 1022.7
20260502062017 14 0.0 0.0 0.00 0.00 0.00 53 1022.7
20260502061015 14 0.0 0.0 0.00 0.00 0.00 53 1022.7
20260502060015 14 0.0 0.0 0.00 0.00 0.00 56 1022.6
20260502055015 13 0.0 0.0 0.00 0.00 0.00 56 1022.7
20260502054016 13 0.0 0.0 0.00 0.00 0.00 57 1022.8
20260502053016 13 0.0 0.0 0.00 0.00 0.00 58 1022.9
20260502052015 13 0.0 0.0 0.00 0.00 0.00 56 1022.8
20260502051055 13 0.0 0.0 0.00 0.00 0.00 56 1022.7
20260502050015 13 0.0 0.0 0.00 0.00 0.00 56 1022.7
20260502045055 13 0.0 0.0 0.00 0.00 0.00 56 1022.5
20260502044015 12 0.0 0.0 0.00 0.00 0.00 55 1022.4
20260502043015 12 0.0 0.0 0.00 0.00 0.00 57 1022.4
20260502042015 12 0.0 0.0 0.00 0.00 0.00 54 1022.5
20260502041035 12 0.0 0.0 0.00 0.00 0.00 55 1022.6
20260502040035 13 0.0 0.0 0.00 0.00 0.00 55 1022.6
20260502035015 13 0.0 0.0 0.00 0.00 0.00 55 1022.7
20260502034059 13 0.0 0.0 0.00 0.00 0.00 54 1022.6
20260502033059 13 0.0 0.0 0.00 0.00 0.00 53 1022.6
20260502032135 13 0.0 0.0 0.00 0.00 0.00 52 1022.6
20260502031015 13 0.0 0.0 0.00 0.00 0.00 52 1022.6
20260502030015 13 0.0 0.0 0.00 0.00 0.00 53 1022.6
20260502025035 13 0.0 0.0 0.00 0.00 0.00 53 1022.6
20260502024015 13 0.0 0.0 0.00 0.00 0.00 52 1022.7
20260502022015 13 0.0 0.0 0.00 0.00 0.00 52 1022.8
20260502021118 13 0.0 0.0 0.00 0.00 0.00 51 1022.8
20260502020017 13 0.0 0.0 0.00 0.00 0.00 52 1022.8
20260502015037 13 0.0 0.0 0.00 0.00 0.00 52 1022.7
20260502014017 13 0.0 0.0 0.00 0.00 0.00 51 1022.7
20260502013037 14 0.0 0.0 0.00 0.00 0.00 48 1022.7
20260502012017 14 0.0 0.0 0.00 0.00 0.00 50 1022.9
20260502011017 14 0.0 0.0 0.00 0.00 0.00 50 1022.8
20260502010017 14 0.0 0.0 0.00 0.00 0.00 50 1022.7
20260502005037 15 0.0 0.0 0.00 0.00 0.00 49 1022.7
20260502004137 15 0.0 0.0 0.00 0.00 0.00 49 1022.8
20260502003057 15 0.0 0.0 0.00 0.00 0.00 48 1022.8
20260502002017 15 0.0 0.0 0.00 0.00 0.00 47 1022.8
20260502001057 15 0.0 0.0 0.00 0.00 0.00 45 1022.9
20260502000017 15 0.0 0.0 0.00 0.00 0.00 45 1023.0
20260501235037 15 0.0 0.0 0.00 0.00 0.00 46 1023.1
20260501234016 15 0.0 0.0 0.00 0.00 0.00 47 1023.1
20260501233056 15 0.0 0.0 0.00 0.00 0.00 46 1023.1
20260501232016 15 0.0 0.0 0.00 0.00 0.00 47 1023.2
20260501231159 15 0.0 0.0 0.00 0.00 0.00 45 1023.1
20260501230016 15 0.0 0.0 0.00 0.00 0.00 44 1023.1
20260501225036 15 0.0 0.0 0.00 0.00 0.00 44 1023.2
20260501224016 15 0.0 0.0 0.00 0.00 0.00 44 1023.1
20260501223016 15 0.0 0.0 0.00 0.00 0.00 43 1023.1
20260501222119 15 0.0 0.0 0.00 0.00 0.00 43 1023.1
20260501221016 15 0.0 0.0 0.00 0.00 0.00 43 1023.0
20260501220016 15 0.0 0.0 0.00 0.00 0.00 43 1022.9
20260501215016 15 0.0 0.0 0.00 0.00 0.00 44 1022.9